Weather History for Mena, AR

Change the Weather History Date:

Friday, October 14, 2011

  Actual Average (KFSM) Record (KFSM)
Temperature  
Mean Temperature 65 °F -  
Max Temperature 86 °F 73 °F 92 °F (1963)
Min Temperature 44 °F 48 °F 34 °F (1885)
Growing Degree Days 15 (Base 50)    
Moisture  
Dew Point 39 °F    
Average Humidity 47    
Maximum Humidity 93    
Minimum Humidity 12    
Precipitation  
Precipitation 0.00 in - - ()
Sea Level Pressure  
Sea Level Pressure 29.96 in    
Wind  
Wind Speed 2 mph (SW)    
Max Wind Speed 9 mph    
Max Gust Speed -    
Visibility 10 miles    
Events      
Averages and records for this station are not official NWS values.
T = Trace of Precipitation, MM = Missing Value Source: NWS Daily Summary

Daily Weather History Graph

Daily Weather History Graph

Search for Another Location

Airport:

Trip Planner

Search our weather history database for the weather conditions in past years. The results will help you decide how hot, cold, wet, or windy it might be!

Date:

Astronomy

Oct. 14, 2011 Rise Set
Actual Time 7:21 AM CDT 6:43 PM CDT
Civil Twilight 6:56 AM CDT 7:09 PM CDT
Nautical Twilight 6:26 AM CDT 7:38 PM CDT
Astronomical Twilight 5:57 AM CDT 8:07 PM CDT
Moon 8:07 PM CDT (10/14) 9:42 AM CDT (10/14)
Length of Visible Light 12h 13m
Length of Day
11h 22m
Waning Gibbous, 94% of the Moon is Illuminated
Oct 14
Waning Gibbous
Oct 19
Last Quarter
Oct 26
New
Nov 2
First Quarter
Nov 10
Full

Hourly Weather History & Observations

Time (CDT) Temp. Dew Point Humidity Pressure Visibility Wind Dir Wind Speed Gust Speed Precip Events Conditions
12:15 AM 55.4 °F 44.6 °F 67% 29.94 in 10.0 mi WSW 3.5 mph - N/A   Clear
12:35 AM 57.2 °F 42.8 °F 59% 29.94 in 10.0 mi WSW 3.5 mph - N/A   Clear
12:55 AM 59.0 °F 42.8 °F 55% 29.94 in 10.0 mi WSW 4.6 mph - N/A   Clear
1:15 AM 53.6 °F 42.8 °F 67% 29.94 in 10.0 mi Calm Calm - N/A   Clear
1:35 AM 50.0 °F 44.6 °F 82% 29.94 in 10.0 mi Calm Calm - N/A   Clear
1:55 AM 50.0 °F 44.6 °F 82% 29.95 in 10.0 mi Calm Calm - N/A   Clear
2:15 AM 50.0 °F 44.6 °F 82% 29.95 in 10.0 mi Calm Calm - N/A   Clear
2:35 AM 50.0 °F 42.8 °F 76% 29.95 in 10.0 mi Calm Calm - N/A   Clear
2:55 AM 50.0 °F 42.8 °F 76% 29.96 in 10.0 mi Calm Calm - N/A   Clear
3:15 AM 50.0 °F 44.6 °F 82% 29.95 in 10.0 mi Calm Calm - N/A   Clear
3:35 AM 48.2 °F 42.8 °F 82% 29.95 in 10.0 mi Calm Calm - N/A   Clear
3:55 AM 48.2 °F 42.8 °F 82% 29.95 in 10.0 mi Calm Calm - N/A   Clear
4:15 AM 48.2 °F 44.6 °F 87% 29.95 in 10.0 mi Calm Calm - N/A   Clear
4:35 AM 48.2 °F 44.6 °F 87% 29.95 in 10.0 mi Calm Calm - N/A   Clear
4:55 AM 46.4 °F 42.8 °F 87% 29.95 in 10.0 mi Calm Calm - N/A   Clear
5:15 AM 46.4 °F 42.8 °F 87% 29.96 in 10.0 mi Calm Calm - N/A   Clear
5:35 AM 46.4 °F 42.8 °F 87% 29.96 in 10.0 mi Calm Calm - N/A   Clear
5:55 AM 46.4 °F 42.8 °F 87% 29.97 in 10.0 mi Calm Calm - N/A   Clear
6:15 AM 46.4 °F 44.6 °F 93% 29.97 in 10.0 mi Calm Calm - N/A   Clear
6:55 AM 46.4 °F 42.8 °F 87% 29.98 in 10.0 mi Calm Calm - N/A   Clear
7:15 AM 44.6 °F 42.8 °F 93% 29.97 in 10.0 mi Calm Calm - N/A   Clear
7:35 AM 44.6 °F 42.8 °F 93% 29.97 in 10.0 mi Calm Calm - N/A   Clear
8:15 AM 50.0 °F 44.6 °F 82% 29.98 in 10.0 mi Calm Calm - N/A   Clear
8:35 AM 51.8 °F 46.4 °F 82% 29.99 in 10.0 mi Calm Calm - N/A   Clear
8:55 AM 55.4 °F 46.4 °F 72% 30.00 in 10.0 mi Calm Calm - N/A   Clear
9:15 AM 60.8 °F 46.4 °F 59% 30.00 in 10.0 mi Calm Calm - N/A   Clear
9:35 AM 64.4 °F 46.4 °F 52% 30.00 in 10.0 mi Calm Calm - N/A   Clear
9:55 AM 68.0 °F 46.4 °F 46% 30.00 in 10.0 mi Calm Calm - N/A   Clear
10:15 AM 71.6 °F 42.8 °F 35% 30.00 in 10.0 mi West 3.5 mph - N/A   Clear
10:35 AM 75.2 °F 41.0 °F 29% 30.01 in 10.0 mi WNW 3.5 mph - N/A   Clear
11:15 AM 78.8 °F 33.8 °F 20% 30.01 in 10.0 mi WSW 8.1 mph - N/A   Clear
11:35 AM 78.8 °F 33.8 °F 20% 30.01 in 10.0 mi SW 3.5 mph - N/A   Clear
11:55 AM 78.8 °F 32.0 °F 18% 30.01 in 10.0 mi WSW 8.1 mph - N/A   Clear
12:15 PM 80.6 °F 33.8 °F 18% 30.01 in 10.0 mi West 8.1 mph - N/A   Clear
12:35 PM 80.6 °F 33.8 °F 18% 30.01 in 10.0 mi WSW 8.1 mph - N/A   Clear
12:55 PM 82.4 °F 33.8 °F 17% 30.00 in 10.0 mi West 9.2 mph - N/A   Clear
1:15 PM 82.4 °F 32.0 °F 16% 29.99 in 10.0 mi SW 6.9 mph - N/A   Clear
1:35 PM 84.2 °F 32.0 °F 15% 29.98 in 10.0 mi West 9.2 mph - N/A   Clear
1:55 PM 82.4 °F 32.0 °F 16% 29.97 in 10.0 mi SSW 3.5 mph - N/A   Clear
2:15 PM 84.2 °F 32.0 °F 15% 29.96 in 10.0 mi West 9.2 mph - N/A   Clear
2:35 PM 86.0 °F 32.0 °F 14% 29.95 in 10.0 mi Calm Calm - N/A   Clear
2:55 PM 86.0 °F 32.0 °F 14% 29.94 in 10.0 mi WSW 4.6 mph - N/A   Clear
3:15 PM 86.0 °F 30.2 °F 13% 29.94 in 10.0 mi West 4.6 mph - N/A   Clear
3:35 PM 86.0 °F 28.4 °F 12% 29.94 in 10.0 mi Calm Calm - N/A   Clear
3:55 PM 86.0 °F 28.4 °F 12% 29.93 in 10.0 mi Calm Calm - N/A   Clear
4:15 PM 86.0 °F 28.4 °F 12% 29.93 in 10.0 mi Calm Calm - N/A   Clear
4:35 PM 86.0 °F 28.4 °F 12% 29.93 in 10.0 mi WSW 3.5 mph - N/A   Clear
4:55 PM 86.0 °F 28.4 °F 12% 29.93 in 10.0 mi SW 4.6 mph - N/A   Clear
5:15 PM 86.0 °F 30.2 °F 13% 29.93 in 10.0 mi South 3.5 mph - N/A   Clear
5:35 PM 84.2 °F 32.0 °F 15% 29.93 in 10.0 mi South 5.8 mph - N/A   Clear
5:55 PM 82.4 °F 32.0 °F 16% 29.93 in 10.0 mi SSW 3.5 mph - N/A   Clear
6:15 PM 82.4 °F 32.0 °F 16% 29.93 in 10.0 mi South 3.5 mph - N/A   Clear
6:35 PM 78.8 °F 32.0 °F 18% 29.94 in 10.0 mi SSE 3.5 mph - N/A   Clear
6:55 PM 77.0 °F 33.8 °F 21% 29.94 in 10.0 mi Calm Calm - N/A   Clear
7:15 PM 75.2 °F 33.8 °F 22% 29.95 in 10.0 mi Calm Calm - N/A   Clear
7:35 PM 69.8 °F 39.2 °F 33% 29.96 in 10.0 mi Calm Calm - N/A   Clear
7:55 PM 68.0 °F 41.0 °F 37% 29.96 in 10.0 mi Calm Calm - N/A   Clear
8:15 PM 68.0 °F 37.4 °F 33% 29.97 in 10.0 mi Calm Calm - N/A   Clear
8:35 PM 66.2 °F 39.2 °F 37% 29.97 in 10.0 mi Calm Calm - N/A   Clear
8:55 PM 62.6 °F 41.0 °F 45% 29.97 in 10.0 mi Calm Calm - N/A   Clear
9:15 PM 62.6 °F 42.8 °F 48% 29.98 in 10.0 mi Calm Calm - N/A   Clear
9:55 PM 60.8 °F 42.8 °F 52% 29.99 in 10.0 mi Calm Calm - N/A   Clear
10:15 PM 60.8 °F 42.8 °F 52% 30.00 in 10.0 mi Calm Calm - N/A   Clear
10:35 PM 59.0 °F 42.8 °F 55% 30.00 in 10.0 mi Calm Calm - N/A   Clear
10:55 PM 57.2 °F 46.4 °F 67% 30.00 in 10.0 mi Calm Calm - N/A   Clear
11:15 PM 55.4 °F 44.6 °F 67% 30.01 in 10.0 mi Calm Calm - N/A   Clear
11:35 PM 57.2 °F 44.6 °F 63% 30.01 in 10.0 mi Calm Calm - N/A   Clear
11:55 PM 53.6 °F 44.6 °F 72% 30.01 in 10.0 mi Calm Calm - N/A   Clear